Regional Weather Roundup
Issued by NWS

Home | Current Version | Previous Version | Graphics & Text | Print | Product List | Glossary Off
Versions: 1 2 3 4 5 6 7 8 9 10 11 12 13 14 15 16 17 18 19 20 21 22 23 24 25 26 27 28 29 30 31 32 33 34 35 36 37 38 39 40 41 42 43 44 45 46 47 48 49 50

000
ASUS43 KMPX 262110
RWRMN
WEATHER ROUNDUP FOR MINNESOTA
NATIONAL WEATHER SERVICE TWIN CITIES/CHANHASSEN MN
400 PM CDT THU APR 26 2018


NOTE: "FAIR" INDICATES FEW OR NO CLOUDS BELOW 12,000 FEET WITH NO
SIGNIFICANT WEATHER AND/OR OBSTRUCTIONS TO VISIBILITY. N/A MEANS
CURRENT SKY AND/OR WEATHER CONDITIONS ARE NOT AVAILABLE.

MNZ060>063-068>070-262200-
   Twin Cities Metro

CITY           SKY/WX    TMP DP  RH WIND       PRES   REMARKS
TWIN CITIES    FAIR      65  33  30 NW20G26   29.86S
ST PAUL        FAIR      64  28  25 N21G28    29.86S
CRYSTAL        FAIR      65  31  28 NW17G25   29.86S
BLAINE         MOSUNNY   64  27  24 N17G25    29.87S
LAKEVILLE      FAIR      63  34  34 NW22      29.85S
EDEN PRAIRIE   FAIR      63  29  27 NW18      29.86S
SOUTH ST PAUL  FAIR      65  28  25 N17G23    29.85S
LAKE ELMO      FAIR      63  36  36 NW12G24   29.86S
$$
MNZ001>005-007-008-013>017-022>024-027-028-262200-
   Northwest Minnesota

CITY           SKY/WX    TMP DP  RH WIND       PRES   REMARKS
BEMIDJI        FAIR      56  26  31 NW16G24   29.95F
HALLOCK        FAIR      59  23  25 NW13      29.98F
ROSEAU         FAIR      55  25  30 NW10G20   29.96F
WARROAD        FAIR      55  23  28 NW17      29.96S
THIEF RVR FALL FAIR      56  24  29 NW22      29.99F
CROOKSTON      FAIR      57  30  35 N21G26    30.01S
FOSSTON        FAIR      55  25  30 NW20G25   30.00S
DETROIT LAKES  FAIR      54  28  37 NW25G31   30.01S
MOORHEAD       FAIR      61  28  29 N24G30    30.03S
PARK RAPIDS    FAIR      57  24  28 N23G32    29.95R
MAHNOMEN       FAIR      55  27  34 NW18G25   29.99F
$$
MNZ006-009>011-018-025>026-262200-
   North Central Minnesota

CITY           SKY/WX    TMP DP  RH WIND       PRES   REMARKS
BAUDETTE       FAIR      53  25  33 N13G25    29.94F
FLAG ISLAND    FAIR      46  23  39 NW14      29.93F
INTL FALLS     FAIR      53  26  35 N15G28    29.91S
WASKISH        FAIR      54  27  35 W7        29.93F
BIG FORK       FAIR      55  21  26 N9G17     29.91S
LONGVILLE      FAIR      55  23  28 NW13G20   29.94S
GRAND RAPIDS   FAIR      55  25  31 NW22G29   29.92S
CRANE LAKE     PTSUNNY   52  25  35 NW8G17    29.92S
ORR            FAIR      54  21  28 NW8G18    29.87S
COOK           FAIR      55  28  35 NW6       29.89S
WALKER         MOCLDY    55  27  34 W15G26    29.93S
$$
MNZ012-019>021-037-262200-
   Northeast Minnesota

CITY           SKY/WX    TMP DP  RH WIND       PRES   REMARKS
DULUTH         FAIR      55  30  38 NW17G23   29.87S
ELY            FAIR      48  25  40 N8G20     29.88S
HIBBING        PTSUNNY   54  27  35 NW18G24   29.87F
EVELETH        FAIR      52  27  37 N7G20     29.90S
DULUTH HARBOR  FAIR      50  36  57 E8        29.88S
TWO HARBORS    FAIR      61  36  39 NW10G16   29.85S
SILVER BAY     FAIR      55  28  35 N8        29.85S
GRAND MARAIS     N/A     55  31  39 VRB5G17   29.85S
G MARAIS ARPRT PTSUNNY   46  27  46 NW6       29.85R
$$
MNZ029>031-032-039>041-046>048-054>057-064-262200-
   West Central Minnesota

CITY           SKY/WX    TMP DP  RH WIND       PRES   REMARKS
FERGUS FALLS   FAIR      55  25  30 N28G33    29.98S
WHEATON        FAIR      57  27  30 NW24G35   30.03F
MORRIS         FAIR      55  32  41 N26G35    29.99F
ALEXANDRIA     FAIR      58  28  32 NW14G25   29.98S
ELBOW LAKE     FAIR      54  29  38 NW18G29   30.01S
WADENA         FAIR      55  30  38 NW20G28   29.96R
GLENWOOD         N/A     55  28  35 NW21G28   29.98R
APPLETON       FAIR      61  30  31 N25G32    30.00F
BENSON         FAIR      57  27  30 N21G30    30.01S
ORTONVILLE     FAIR      57  30  35 N24G35    30.01F
MADISON        FAIR      61  34  36 N18G24    30.02S
WILLMAR        FAIR      57  28  33 N17G25    29.98F
$$
MNZ033>034-036-042>043-049>051-058-059-262200-
   Central Minnesota

CITY           SKY/WX    TMP DP  RH WIND       PRES   REMARKS
ST CLOUD       FAIR      62  30  29 NW18G28   29.89F
SAUK CENTRE    FAIR      58  30  34 NW15G23   29.95R
PAYNESVILLE    FAIR      59  32  36 NW18G24   29.94S
AITKIN         FAIR      55  28  35 NW7G17    29.90R
PINE RIVER     FAIR      54  27  35 N15       29.96S
BRAINERD       FAIR      58  27  30 N15G23    29.93S
STAPLES        FAIR      59  23  25 NW14G24   29.94S
LONG PRAIRIE   FAIR      55  30  38 W18G25    29.95R
LITTLE FALLS   FAIR      59  16  18 N13G20    29.92R
LITCHFIELD     FAIR      61  30  31 NW16G24   29.93S
BUFFALO        FAIR      63  30  29 NW8G18    29.89F
MAPLE LAKE     FAIR      63  32  31 NW15G22   29.90F
HUTCHINSON     FAIR      61  35  36 NW22      29.93S
$$
MNZ037-044-045-052-053-262200-
   East Central Minnesota

CITY           SKY/WX    TMP DP  RH WIND       PRES   REMARKS
PRINCETON      FAIR      63  28  27 NW12      29.90R
MORA           FAIR      59  32  36 NW16G22   29.90S
CAMBRIDGE      FAIR      63  39  42 NW13G22   29.88S
RUSH CITY      FAIR      61  30  31 NW10G17   29.87S
MOOSE LAKE     FAIR      59  32  36 N18       29.86S
HINCKLEY       FAIR      61  32  33 NW15G23   29.86S
CLOQUET        FAIR      57  23  26 NW15G23   29.88R
MCGREGOR       PTSUNNY   59  30  33 NW14      29.90R
$$
MNZ071>073-080-081-089-090-097-098-262200-
   Southwest Minnesota

CITY           SKY/WX    TMP DP  RH WIND       PRES   REMARKS
MONTEVIDEO     FAIR      57  30  35 N25G33    30.00F
GRANITE FALLS  FAIR      58  33  39 NW22G32   30.01F
CANBY          FAIR      60  33  35 NW17G26   30.03F
MARSHALL       FAIR      56  34  43 N29G36    30.00S
REDWOOD FALLS  FAIR      58  31  35 NW21G33   29.96F
OLIVIA         FAIR      59  34  38 NW23G30   29.96S
PIPESTONE      FAIR     N/A N/A N/A N17G24    30.03S
WINDOM         FAIR      57  30  35 NW29      29.98S
WORTHINGTON    FAIR      56  35  45 N24G36    30.00S
JACKSON        FAIR      55  34  44 NW30G38   29.98R
TRACY          FAIR      56  38  49 N25G35    30.00S
SLAYTON        FAIR      54  35  47 NW28      30.02R
$$
MNZ065>067-074>077-082>085-091>093-262200-
   South Central Minnesota

CITY           SKY/WX    TMP DP  RH WIND       PRES   REMARKS
MANKATO        FAIR      61  34  36 N22G28    29.90S
NEW ULM        FAIR      61  30  31 NW21G31   29.94R
ST JAMES       FAIR      57  36  44 NW28G35   29.95S
FAIRMONT       FAIR      58  36  43 N28G35    29.94R
GLENCOE        FAIR      62  33  33 NW15G25   29.90S
OWATONNA       FAIR      63  37  39 NW15G25   29.87S
WASECA         FAIR      63  39  42 NW16G26   29.90S
ALBERT LEA     FAIR      63  36  36 NW14G24   29.88S
$$
MNZ078>079-086>088-094>096-262200-
   Southeast Minnesota

CITY           SKY/WX    TMP DP  RH WIND       PRES   REMARKS
ROCHESTER      FAIR      63  43  48 W16       29.85S
RED WING       FAIR      66  28  24 N12G20    29.83S
STANTON        FAIR      65  33  30 NW18G24   29.84S
DODGE CENTER   FAIR      61  37  41 NW15G26   29.86S
WINONA         FAIR      70  41  35 W6G16     29.79F
AUSTIN         FAIR      63  39  42 W18       29.86S
PRESTON        FAIR      64  40  41 W16G23    29.85F
$$
ABBREVIATIONS USED IN REMARKS
   TC - TEMPERATURES IN CELSIUS
  WCI - WIND CHILL INDEX
   HX - HEAT INDEX
  VSB - VISIBILITY
$$




USA.gov is the U.S. government's official web portal to all federal, state and local government web resources and services.